"Pseudo-MPEC" for P22idK0

Created 2025 Dec 5 22:35:11 UT using Find_Orb

Click here for an explanation of pseudo-MPECs

 
 Astrometry: 
     P22idK0* C2025 11 29.43201006 58 25.383+43 07 30.99   ~BTLK 22.63wXNEOCPF52
     P22idK0  C2025 11 29.44296406 58 24.767+43 07 35.81   ~BTLK 23.06wXNEOCPF52
     P22idK0  C2025 11 29.45387006 58 24.115+43 07 40.38   ~BTLK 22.26wXNEOCPF52
     P22idK0  C2025 11 29.46479106 58 23.480+43 07 45.24   ~BTLK 22.61wXNEOCPF52

Station data:
(F52) Pan-STARRS 2, Haleakala  (N20.707382 W156.255910)  US/Hawaii.
   Observers J. Herman, T. Lowe, P. Minguez, A. Schultz, I. Smith. Measurers
   K. Chambers, T. de Boer, J. Fairlamb, H. Gao, M. Huber, C.-C. Lin, E.
   Magnier, Y. Ramanjooloo, R. Wainscoat, R. Weryk. 1.8-m Ritchey-Chrétien +
   CCD.

Orbital elements:  P22idK0
   Perihelion 2026 Oct 6.716944 +/- 439 TT = 17:12:23.9 (JD 2461320.216944)
Epoch 2025 Nov 29.0 TT = JDT 2461008.5   Earth MOID: 0.0772      AutoNEOCP
M 278.387680138 +/- 80              (J2000 ecliptic)
n   0.261815475 +/- 0.228           Peri.  219.848419 +/- 60
a   2.419946921 +/- 1.41            Node    20.590103 +/- 60
e   0.67057218 +/- 0.246            Incl.   15.643278 +/- 38
P   3.76451                H 17.51  G  0.15   U 11.8  SR
q 0.797197828 +/- 1.36    Q 4.042696014 +/- 34.3
From 4 observations 2025 Nov. 29 (47.2 min); mean residual 0".07
Residuals in arcseconds: 
251129 F52  .08-  .01-    251129 F52  .04-  .10-    
251129 F52  .14+  .06+    251129 F52  .02-  .04+    

Ephemerides (geocentric):
Date (UTC) HH   RA             Dec           delta  r     elong  mag " sig PA
---- --------  ------------   ------------  ------ ------ -----  --- --------
2025 12 05 23  06 51 29.240   +43 52 20.67  2.2250 3.0980 147.0 22.4 934' 124
2025 12 06 00  06 51 26.282   +43 52 37.15  2.2245 3.0978 147.0 22.4 934' 124
2025 12 06 01  06 51 23.321   +43 52 53.62  2.2240 3.0976 147.0 22.4 934' 124
2025 12 06 02  06 51 20.356   +43 53 10.07  2.2235 3.0974 147.1 22.3 934' 124
2025 12 06 03  06 51 17.387   +43 53 26.52  2.2231 3.0972 147.1 22.3 934' 124
2025 12 06 04  06 51 14.414   +43 53 42.96  2.2226 3.0969 147.2 22.3 934' 124
2025 12 06 05  06 51 11.438   +43 53 59.39  2.2221 3.0967 147.2 22.3 934' 124
2025 12 06 06  06 51 08.457   +43 54 15.80  2.2217 3.0965 147.2 22.3 934' 124
2025 12 06 07  06 51 05.473   +43 54 32.21  2.2212 3.0963 147.3 22.3 934' 124
2025 12 06 08  06 51 02.486   +43 54 48.60  2.2207 3.0961 147.3 22.3 934' 124
2025 12 06 09  06 50 59.494   +43 55 04.98  2.2203 3.0958 147.3 22.3 934' 124
2025 12 06 10  06 50 56.499   +43 55 21.35  2.2198 3.0956 147.4 22.3 934' 124
2025 12 06 11  06 50 53.500   +43 55 37.71  2.2193 3.0954 147.4 22.3 934' 124
2025 12 06 12  06 50 50.497   +43 55 54.06  2.2189 3.0952 147.5 22.3 934' 124
2025 12 06 13  06 50 47.491   +43 56 10.39  2.2184 3.0950 147.5 22.3 934' 124
2025 12 06 14  06 50 44.481   +43 56 26.72  2.2179 3.0947 147.5 22.3 935' 124
2025 12 06 15  06 50 41.467   +43 56 43.03  2.2175 3.0945 147.6 22.3 935' 124
2025 12 06 16  06 50 38.449   +43 56 59.34  2.2170 3.0943 147.6 22.3 936' 124
2025 12 06 17  06 50 35.428   +43 57 15.63  2.2165 3.0941 147.6 22.3 937' 124
2025 12 06 18  06 50 32.403   +43 57 31.91  2.2161 3.0939 147.7 22.3 939' 123
2025 12 06 19  06 50 29.374   +43 57 48.17  2.2156 3.0936 147.7 22.3 942' 123
2025 12 06 20  06 50 26.341   +43 58 04.43  2.2151 3.0934 147.8 22.3 946' 123
2025 12 06 21  06 50 23.305   +43 58 20.67  2.2147 3.0932 147.8 22.3 953' 122
2025 12 06 22  06 50 20.265   +43 58 36.91  2.2142 3.0930 147.8 22.3 964' 122
2025 12 06 23  06 50 17.221   +43 58 53.13  2.2138 3.0928 147.9 22.3 980' 121
2025 12 07 00  06 50 14.174   +43 59 09.34  2.2133 3.0925 147.9 22.3  17d 121
2025 12 07 01  06 50 11.122   +43 59 25.53  2.2128 3.0923 147.9 22.3  17d 121
2025 12 07 02  06 50 08.067   +43 59 41.72  2.2124 3.0921 148.0 22.3  18d 122
2025 12 07 03  06 50 05.009   +43 59 57.89  2.2119 3.0919 148.0 22.3  18d 122
2025 12 07 04  06 50 01.946   +44 00 14.06  2.2115 3.0917 148.0 22.3  19d 123
2025 12 07 05  06 49 58.880   +44 00 30.21  2.2110 3.0914 148.1 22.3  19d 123
2025 12 07 06  06 49 55.811   +44 00 46.34  2.2105 3.0912 148.1 22.3  19d 124
2025 12 07 07  06 49 52.737   +44 01 02.47  2.2101 3.0910 148.2 22.3  20d 124
2025 12 07 08  06 49 49.660   +44 01 18.58  2.2096 3.0908 148.2 22.3  20d 124
2025 12 07 09  06 49 46.579   +44 01 34.69  2.2092 3.0906 148.2 22.3  20d 124
2025 12 07 10  06 49 43.495   +44 01 50.77  2.2087 3.0903 148.3 22.3  20d 124
2025 12 07 11  06 49 40.406   +44 02 06.85  2.2083 3.0901 148.3 22.3  20d 124
2025 12 07 12  06 49 37.314   +44 02 22.92  2.2078 3.0899 148.3 22.3  20d 124
2025 12 07 13  06 49 34.219   +44 02 38.97  2.2073 3.0897 148.4 22.3  21d 124
2025 12 07 14  06 49 31.119   +44 02 55.01  2.2069 3.0895 148.4 22.3  21d 124
2025 12 07 15  06 49 28.016   +44 03 11.04  2.2064 3.0892 148.4 22.3  21d 124
2025 12 07 16  06 49 24.909   +44 03 27.05  2.2060 3.0890 148.5 22.3  21d 124
2025 12 07 17  06 49 21.799   +44 03 43.06  2.2055 3.0888 148.5 22.3  21d 124
2025 12 07 18  06 49 18.685   +44 03 59.05  2.2051 3.0886 148.6 22.3  21d 124
2025 12 07 19  06 49 15.567   +44 04 15.03  2.2046 3.0884 148.6 22.3  21d 124
2025 12 07 20  06 49 12.446   +44 04 30.99  2.2042 3.0881 148.6 22.3  21d 125
2025 12 07 21  06 49 09.321   +44 04 46.94  2.2037 3.0879 148.7 22.3  21d 125
2025 12 07 22  06 49 06.192   +44 05 02.88  2.2033 3.0877 148.7 22.3  21d 125